www.pogodaiklimat.ru

Погода и климат >> Архив погоды >> Монголия >> Бат Олжий Вунд


ПОГОДА в Бат Олжий Вунд

  • Прогноз погоды в Бат Олжий Вунд
  • Монитор погоды в Бат Олжий Вунд

АРХИВ ПОГОДЫ в Бат Олжий Вунд

Время (UTC), дата Ветер
(напр.,м/с)
 
Видим.   Явления Облачность Т
(С)
Тd
(С)
f
(%)
Тe
(С)
Тes
(С)
Комфортность P
(гПа)
Po
(гПа)
Тmin
(С)
Tmax
(С)
R
(мм)
R24
(мм)
S
(см)
12 10.08 штиль 0 20 км 3/3 1000 м
[Cu hum]
+22.3 +11.7 51 +25 +25 комфорт 1004.6 858.9 +24.7
15 10.08 штиль 0 н/о ясно +17.1 +11.2 68 +17 +17 1007.9 859.3
18 10.08 штиль 0 н/о ясно +18.0 +10.6 62 +18 +18 1007.8 859.7
21 10.08 Ю 1 н/о ясно +16.1 +9.5 65 +17 +17 1008.5 859.4
00 11.08 ЮЗ 3 20 км 4/0
[Ci fib]
+17.8 +11.1 65 +18 +20 1007.6 859.4 +15.4
03 11.08 ЮВ 5 20 км ясно +23.0 +13.5 55 +26 +33 жарко 1002.9 857.8
06 11.08 ЮЗ 5 20 км 3/0
[Ac lent]
+27.0 +13.4 43 +29 +35 жарко 999.1 856.3
09 11.08 СЗ 9 20 км 8/6 1000 м
[Sc Ac lent]
+22.5 +9.2 43 +24 +24 комфорт 1001.0 855.9
12 11.08 З 3 20 км 8/8 1000 м
[Sc]
+17.6 +7.6 52 +18 +18 1006.2 858.1 +29.4
15 11.08 З 4 н/о в посл. час ливневой дождь 10/10 1000 м
[Sc]
+15.0 +8.2 64 +14 +14 1010.7 860.7
18 11.08 З 3 н/о дождь 10/0 600 м
[As op]
+12.9 +8.2 73 +12 +12 1011.9 860.7
21 11.08 З 3 н/о {дождь} 8/8 1000 м
[Sc]
+12.7 +7.4 70 +11 +11 1011.9 860.6
00 12.08 З 5 20 км {дождь} 4/0
[Ac As]
+13.7 +7.8 68 +12 +13 1011.8 861.0 +11.9 4
03 12.08 С 5 20 км 8/8 1000 м
[Sc]
+14.2 +8.6 69 +13 +14 1012.5 861.9
06 12.08 С 3 20 км 8/8 1000 м
[Sc]
+15.6 +6.7 55 +15 +18 1011.5 861.7
09 12.08 С 3 20 км 8/8 1000 м
[Sc]
+17.5 +7.2 51 +18 +19 1009.8 861.1
12 12.08 СВ 1 20 км 6/6 1000 м
[Sc]
+17.0 +6.6 50 +18 +18 1009.3 860.5 +18.7
15 12.08 В 1 н/о 8/8 1000 м
[Sc]
+14.4 +8.6 68 +15 +15 1011.7 861.3
18 12.08 ЮВ 1 н/о 8/8 1000 м
[Sc]
+13.1 +7.5 69 +13 +13 1011.8 860.7
21 12.08 Ю 3 н/о гроза без осадков {ливн. осадки} 8/8 1000 м
[Sc]
+13.5 +7.2 66 +12 +12 1009.4 858.9
00 13.08 ЮВ 3 20 км {гроза, ливн. осадки} 9/9 600 м
[Cb cap]
+13.1 +7.7 70 +12 +12 1010.1 859.3 +11.7 5
03 13.08 Ю 7 20 км 6/6 1000 м
[Sc]
+17.4 +9.1 58 +16 +18 1007.2 858.9
06 13.08 З 7 20 км 4/4 1000 м
[Cb calv]
+20.6 +9.2 48 +22 +24 комфорт 1005.1 858.6
09 13.08 СЗ 4 20 км 5/3 1000 м
[Cb calv Ci fib]
+21.2 +6.6 39 +22 +25 комфорт 1004.3 858.2
12 13.08 СЗ 1 20 км 8/0
[Ac trans Cs]
+20.4 +6.3 40 +22 +22 комфорт 1004.8 858.2 +22.2
15 13.08 ЮВ 1 н/о 8/5 1000 м
[Sc Ac trans]
+15.6 +8.1 61 +16 +16 1007.6 858.4
18 13.08 ЮВ 2 н/о зарница {гроза, ливн. осадки} 6/6 1000 м
[Sc]
+13.4 +7.9 69 +13 +13 1009.4 858.8
21 13.08 Ю 2 н/о {гроза} 6/6 1000 м
[Sc]
+11.8 +7.6 75 +11 +11 1010.0 858.6
00 14.08 штиль 0 20 км {гроза} 6/4 1000 м
[Sc Ac trans]
+13.4 +7.7 68 +13 +15 1008.3 857.9 +11.0 0.7
03 14.08 штиль 0 20 км 5/5 1000 м
[Cu hum]
+17.5 +8.0 54 +18 +26 1006.1 858.0
06 14.08 З 5 20 км 8/8 1000 м
[Cu med, cong]
+20.5 +8.4 46 +22 +23 комфорт 1004.3 857.8
09 14.08 СЗ 3 20 км 4/4 1000 м
[Cu med, cong]
+21.7 +7.5 40 +23 +26 комфорт 1002.0 856.4
12 14.08 С 1 20 км 8/8 1000 м
[Cu Sc]
+17.7 +7.1 50 +19 +19 1002.7 855.2 +22.3
15 14.08 С 1 н/о зарница {ливн. осадки} 9/9 600 м
[Cb cap]
+14.0 +6.6 61 +14 +14 1007.1 857.2
18 14.08 СЗ 1 н/о {ливн. осадки} 8/8 1000 м
[Cu Sc]
+10.3 +5.5 72 +10 +10 1012.1 859.6
21 14.08 С 7 н/о 9/9 1000 м
[Cu Sc]
+8.3 +1.8 64 +4 +4 1014.6 860.7
00 15.08 С 7 20 км 10/10 1000 м
[Cu Sc]
+8.5 +1.8 63 +5 +5 1016.3 862.3 +8.0 0.6
03 15.08 С 10 20 км 10/10 1000 м
[Sc]
+9.5 +2.8 63 +5 +5 1017.0 863.4
06 15.08 С 4 20 км 10/10 1000 м
[Sc]
+11.4 +4.0 60 +9 +9 1016.4 863.8
09 15.08 С 3 20 км 8/8 1000 м
[Sc]
+13.6 +3.2 49 +13 +14 1015.0 863.7
12 15.08 С 2 20 км 4/0
[Ac As]
+12.9 +3.2 52 +12 +12 1014.6 863.0 +15.3
15 15.08 штиль 0 н/о 4/0
[Ac As]
+8.6 +3.7 71 +8 +8 1017.4 863.3
18 15.08 штиль 0 н/о 6/0
[Ac As]
+6.5 +2.2 74 +6 +6 1018.3 863.0
21 15.08 штиль 0 н/о 6/0
[Ac As]
+5.6 +1.6 75 +5 +5 1018.4 862.6
00 16.08 штиль 0 20 км 3/0
[Ac trans]
+9.6 +3.8 67 +9 +12 1016.1 862.7 +4.8
03 16.08 штиль 0 20 км 3/3 1000 м
[Cu hum]
+15.6 +4.5 48 +16 +27 1012.1 862.2
06 16.08 штиль 0 20 км 6/6 1000 м
[Cu med, cong]
+17.5 +4.8 43 +18 +25 1009.8 861.1
09 16.08 штиль 0 20 км 4/4 1000 м
[Cu med, cong]
+18.6 +5.6 42 +19 +23 1008.0 860.1
12 16.08 В 3 20 км 8/0
[Ac lent Cs]
+15.5 +3.6 45 +15 +15 1009.7 860.1 +19.5
15 16.08 ЮВ 1 н/о 8/0
[Ac lent Cs]
+12.5 +4.1 57 +13 +13 1011.5 860.2
18 16.08 ЮВ 1 н/о 8/0
[Ac lent Cs]
+10.8 +4.4 65 +11 +11 1011.6 859.4
21 16.08 Ю 3 н/о 8/8 1000 м
[Sc]
+13.2 +5.4 59 +12 +12 1009.5 858.8
00 17.08 Ю 1 20 км 9/9 1000 м
[Sc]
+13.5 +5.1 57 +14 +14 1009.1 858.6 +10.2
03 17.08 З 5 20 км 8/0
[Ac trans]
+18.3 +8.0 51 +18 +21 1006.2 858.4
06 17.08 З 5 20 км 9/3 1000 м
[Frnb As trans]
+21.5 +9.3 46 +23 +26 комфорт 1003.6 857.7
09 17.08 СЗ 5 20 км 9/6 1000 м
[Cu med, cong As trans]
+23.5 +8.0 37 +24 +25 комфорт 1001.7 857.0

 

Местоположение метеостанции Бат Олжий Вунд (Монголия): широта 46.97 долгота 103.80 высота над уровнем моря 1358 м.

В архиве по умолчанию представлена погода в Бат Олжий Вунд за последнюю неделю. Архивные данные за месяц целиком и за предыдущие месяцы, начиная с января 2011 года, Вы можете получить, выбрав интересующий диапазон дат из раскрывающегося списка и нажав кнопку "Ввод!".


*Определитесь, кто Вы:
робот инопланетянин человек

Внимание! Время в таблицах - всемирное. Для получения местного времени необходимо прибавить поправку, которая равна 8 ч.

Смотрите также архив погоды в соседних городах и на ближайших метеорологических станциях:

Погода в Хужирте (Монголия) (79 км)
Погода в Арвайхээре (Монголия) (110 км)
Погода в Сайкхан-Ову (Монголия) (169 км)
Погода в Цэцэрлэге (Монголия) (185 км)
Погода в Булгане (Монголия) (204 км)
Погода в Мандалгоби (Монголия) (232 км)
Погода в Улан-Батор аэропорту (Монголия) (250 км)
Погода в Эрдэнэмандале (Монголия) (251 км)
Погода в Улан-Баторе (Монголия) (253 км)
Погода в Баянхонгоре (Монголия) (256 км)

Пояснения к столбцам:

Ветер - указаны скорость ветра в м/с - средняя за 10 мин, порывы в срок и между сроками (в фигурных скобках) и направление, откуда дует ветер: С - северный, СВ - северо-восточный, В - восточный, ЮВ - юго-восточный, Ю - южный, ЮЗ - юго-западный, З - западный, СЗ - северо-западный.
Видимость - горизонтальная дальность видимости в метрах или километрах. При видимости от 1 до 10 км при отсутствии осадков обычно наблюдается дымка, при ухудшении видимости до 1 км и менее - туман. В сухую погоду видимость может ухудшаться дымом, пылью или мглою.
Явления - указаны атмосферные явления, наблюдавшиеся в срок или в последний час перед сроком; фигурными скобками обозначены явления, наблюдавшиеся между сроками (за 1-3 часа до срока); квадратными скобками обозначены град или гололедные отложения с указанием их диаметра в мм.
Облачность - указаны через наклонную черту общая и нижняя облачность в баллах и высота нижней границы облаков в метрах; квадратными скобками обозначены формы облаков: Ci - перистые, Cs - перисто-слоистые, Cc - перисто-кучевые, Ac - высококучевые, As - высокослоистые, Sc - слоисто-кучевые, Ns - слоисто-дождевые, Cu - кучевые, Cb - кучево-дождевые. Подробнее классификацию облаков см. в Атласе облаков (PDF).
T - Температура воздуха - температура, измеренная на высоте 2 м над землей.
Td - Температура точки росы - температура, при понижении до которой содержащийся в воздухе водяной пар достигнет насыщения.
f - Относительная влажность воздуха - влажноcть воздуха, измеренная на высоте 2 м над землей.
Te - Эффективная температура - температура, которую ощущает одетый по сезону человек в тени. Характеристика душности погоды. При расчете учитывается влияние влажности воздуха и скорости ветра на теплоощущения человека.
Tes - Эффективная температура на солнце - температура, которую ощущает человек, с поправкой на солнечный нагрев. Характеристика знойности погоды. Зависит от высоты солнца над горизонтом, облачности и скорости ветра. Ночью, в пасмурную погоду, а также при ветре 12 м/с и более поправка равна нулю.
P - Атмосферное давление - приведенное к уровню моря атмосферное давление.
Po - Атмосферное давление - измеренное на уровне метеостанции атмосферное давление.
Tmin - Минимальная температура - минимум температуры воздуха на высоте 2 м над землей.
Tmax - Максимальная температура - максимум температуры воздуха на высоте 2 м над землей.
R - Количество осадков - Количество выпавших осадков за период времени, мм. При наведении курсора мыши на число - период времени, за который выпало указанное количество осадков.
R24 - Количество осадков - Количество выпавших осадков за 24 часа, мм.
S - Снежный покров - Высота снежного покрова, см. При наведении курсора мыши на число - состояние снежного покрова и степень покрытия местности в баллах.